Flag for Canada Weather past 2 weeks in Norfolk, Ontario, Canada

Now
23 °F

Cold.


Feels Like: 14 °F
Forecast: 27 / 33 °F
Wind: 8 mph from North

Location: Delhi CS

Current Time: Dec 19, 2014 at 11:05:58 AM

Latest Report: Dec 19, 2014 at 10:00 AM


Visibility: N/A

Pressure: 30.23 "Hg

Humidity: 84%

Dew point: 19 °F

Location of NorfolkLocation

Historic Weather in Norfolk — Graph

°F

Norfolk temperature yesterday

Maximum temperature yesterday: 33 °F (at 12:00 PM)
Minimum temperature yesterday: 28 °F (at 2:00 AM)
Average temperature yesterday: 29 °F

Past Weeks' High & Low Weather Summary

 TemperatureHumidityPressure
High42 °F (Dec 16, 4:00 PM)100% (Dec 5, 9:00 PM)30.74 "Hg (Dec 5, 9:00 PM)
Low21 °F (Dec 7, 6:00 AM)35% (Dec 8, 1:00 PM)29.67 "Hg (Dec 16, 2:00 PM)
Average32 °F87%30.13 "Hg
* Reported Dec 4 9:00 AM — Dec 19 9:00 AM, Norfolk, Weather by CustomWeather, © 2014

Note: Actual official high and low records may vary slightly from our data, if they occured in-between our weather recording intervals... More about our weather records

Advertising

Norfolk weather history for previous 24 hours

 ConditionsComfort  
Time TempWeatherWind HumidityBarometerVisibility
9:00 AM
Dec 19
22 °FCold.6 mph85%30.22 "HgN/A
8:00 AM22 °FCold.8 mph84%30.21 "HgN/A
7:00 AM23 °FCold.7 mph83%30.19 "HgN/A
6:00 AM23 °FCold.7 mph85%30.17 "HgN/A
5:00 AM23 °FCold.6 mph86%30.16 "HgN/A
4:00 AM26 °FChilly.6 mph83%30.15 "HgN/A
3:00 AM25 °FChilly.6 mph89%30.15 "HgN/A
2:00 AM26 °FChilly.10 mph88%30.13 "HgN/A
1:00 AM27 °FChilly.8 mph88%30.13 "HgN/A
12:00 AM28 °FChilly.8 mph88%30.13 "HgN/A
11:00 PM
Dec 18
28 °FChilly.6 mph91%30.12 "HgN/A
10:00 PM28 °FChilly.7 mph92%30.11 "HgN/A
9:00 PM29 °FChilly.6 mph90%30.12 "HgN/A
8:00 PM29 °FChilly.9 mph85%30.12 "HgN/A
7:00 PM30 °FChilly.8 mph90%30.13 "HgN/A
6:00 PM29 °FChilly.6 mph97%30.12 "HgN/A
5:00 PM29 °FChilly.6 mph96%30.12 "HgN/A
4:00 PM30 °FChilly.8 mph98%30.11 "HgN/A
3:00 PM30 °FChilly.6 mph94%30.10 "HgN/A
2:00 PM30 °FChilly.6 mph93%30.10 "HgN/A
1:00 PM31 °FChilly.6 mph90%30.11 "HgN/A
12:00 PM33 °FChilly.7 mph78%30.13 "HgN/A
11:00 AM30 °FChilly.7 mph89%30.14 "HgN/A
Weather by CustomWeather, © 2014

See weather overviewHow to use our weather pages